GW4455 Weather Reports


time (UTC)temp
F
wind
direction
speed
knots
gust
knots
rain 1hr
in
rain 24hr
in
rain mn
in
humidity
%
barometer
mb
20260504130201 42 206 5.2 9.6 0.00 0.00 0.00 61 1009.1
20260504110202 38 35 0.9 1.7 0.00 0.00 0.00 76 1008.3
20260504100200 38 69 0.0 0.9 0.00 0.00 0.00 76 1008.3
20260504081521 41 304 0.9 2.6 0.00 0.00 0.00 67 1008.7
20260504080841 42 0 0.9 2.6 0.00 0.00 0.00 66 1008.7
20260504080201 42 241 0.9 1.7 0.00 0.00 0.00 67 1008.7
20260504070201 43 255 1.7 3.5 0.00 0.00 0.00 64 1009.1
20260504060201 47 296 0.9 1.7 0.00 0.00 0.00 59 1009.5
20260504045521 50 30 0.9 1.7 0.00 0.00 0.00 53 1009.9
20260504044201 50 105 0.9 2.6 0.00 0.00 0.00 52 1009.9
20260504043521 50 80 0.9 2.6 0.00 0.00 0.00 51 1009.9
20260504042841 51 7 1.7 2.6 0.00 0.00 0.00 49 1009.9
20260504042201 51 42 1.7 2.6 0.00 0.00 0.00 50 1009.9
20260504040841 53 352 0.9 1.7 0.00 0.00 0.00 47 1010.3
20260504040201 54 47 0.9 1.7 0.00 0.00 0.00 45 1010.3
20260504035521 53 350 0.0 1.7 0.00 0.00 0.00 46 1010.3
20260504034841 54 59 0.9 2.6 0.00 0.00 0.00 44 1010.3
20260504034201 54 101 1.7 3.5 0.00 0.00 0.00 44 1010.3
20260504033521 54 67 1.7 3.5 0.00 0.00 0.00 44 1010.3
20260504032841 54 78 2.6 3.5 0.00 0.00 0.00 44 1010.3
20260504032201 55 359 0.9 2.6 0.00 0.00 0.00 42 1009.9
20260504031521 56 58 1.7 4.3 0.00 0.00 0.00 41 1010.3
20260504030841 57 100 2.6 4.3 0.00 0.00 0.00 39 1009.9
20260504030201 57 63 2.6 4.3 0.00 0.00 0.00 39 1010.3
20260504025521 58 40 1.7 4.3 0.00 0.00 0.00 38 1009.9
20260504024841 57 62 0.9 2.6 0.00 0.00 0.00 40 1009.9
20260504024201 58 42 2.6 2.6 0.00 0.00 0.00 38 1009.9
20260504023521 59 34 1.7 4.3 0.00 0.00 0.00 36 1010.3
20260504022841 60 44 3.5 5.2 0.00 0.00 0.00 36 1009.9
20260504022201 61 109 3.5 5.2 0.00 0.00 0.00 32 1009.9
20260504021522 61 111 2.6 5.2 0.00 0.00 0.00 32 1009.9
20260504020841 62 118 2.6 6.1 0.00 0.00 0.00 32 1009.9
20260504020201 62 109 4.3 6.1 0.00 0.00 0.00 32 1009.9
20260504015521 63 111 3.5 7.0 0.00 0.00 0.00 30 1009.9
20260504014841 63 100 4.3 7.0 0.00 0.00 0.00 29 1009.9
20260504014201 64 82 2.6 6.1 0.00 0.00 0.00 29 1009.9
20260504013521 64 74 4.3 7.8 0.00 0.00 0.00 28 1009.9
20260504012841 64 51 3.5 7.8 0.00 0.00 0.00 28 1009.9
20260504012201 65 60 4.3 7.8 0.00 0.00 0.00 27 1009.9
20260504010841 66 52 5.2 7.8 0.00 0.00 0.00 26 1009.9
20260504010201 67 44 3.5 7.0 0.00 0.00 0.00 24 1009.9
20260504005521 66 57 3.5 7.0 0.00 0.00 0.00 24 1009.9
20260504004841 66 92 4.3 7.0 0.00 0.00 0.00 24 1009.9
20260504003521 65 74 4.3 10.4 0.00 0.00 0.00 26 1009.9
20260504002841 65 85 6.1 10.4 0.00 0.00 0.00 27 1010.3
20260504002201 65 91 5.2 8.7 0.00 0.00 0.00 26 1010.3
20260504001521 65 55 4.3 8.7 0.00 0.00 0.00 27 1010.6
20260504000841 65 52 4.3 12.2 0.00 0.00 0.00 26 1010.3
20260504000201 66 73 3.5 7.0 0.00 0.00 0.00 27 1010.6
20260503234201 67 321 2.6 6.1 0.00 0.00 0.00 21 1010.6
20260503233521 67 77 0.9 14.8 0.00 0.00 0.00 21 1010.6
20260503232841 66 343 5.2 12.2 0.00 0.00 0.00 22 1010.6
20260503231521 65 32 2.6 11.3 0.00 0.00 0.00 27 1011.0
20260503230841 64 42 4.3 12.2 0.00 0.00 0.00 27 1011.0
20260503230201 65 43 7.0 12.2 0.00 0.00 0.00 27 1011.0
20260503225521 65 38 5.2 13.9 0.00 0.00 0.00 28 1010.6
20260503224841 65 37 7.8 15.6 0.00 0.00 0.00 28 1010.6
20260503223521 65 40 9.6 16.5 0.00 0.00 0.00 26 1010.6
20260503222841 65 31 7.0 13.9 0.00 0.00 0.00 26 1011.4
20260503222201 65 29 7.8 17.4 0.00 0.00 0.00 27 1010.6
20260503221521 65 21 8.7 20.0 0.00 0.00 0.00 24 1010.6
20260503220841 68 1 8.7 23.5 0.00 0.00 0.00 22 1010.6
20260503220201 68 304 11.3 27.8 0.00 0.00 0.00 15 1010.6
20260503215521 66 270 7.0 23.5 0.00 0.00 0.00 18 1011.0
20260503214841 66 260 7.0 27.8 0.00 0.00 0.00 19 1011.0
20260503214201 67 275 10.4 27.8 0.00 0.00 0.00 17 1011.4
20260503213521 67 305 13.9 24.3 0.00 0.00 0.00 16 1011.0
20260503212841 66 312 7.0 19.1 0.00 0.00 0.00 19 1011.4
20260503212201 65 320 12.2 27.8 0.00 0.00 0.00 20 1011.4
20260503211521 64 321 13.9 31.3 0.00 0.00 0.00 23 1011.4
20260503210841 66 311 18.2 31.3 0.00 0.00 0.00 20 1011.8
20260503205521 67 308 11.3 20.9 0.00 0.00 0.00 18 1011.4
20260503204201 68 327 4.3 25.2 0.00 0.00 0.00 19 1011.4
20260503203521 69 272 8.7 22.6 0.00 0.00 0.00 15 1011.8
20260503202841 69 278 11.3 22.6 0.00 0.00 0.00 14 1011.8
20260503202201 69 254 8.7 19.1 0.00 0.00 0.00 14 1011.8
20260503201521 70 242 10.4 17.4 0.00 0.00 0.00 16 1011.4
20260503200201 69 272 6.1 12.2 0.00 0.00 0.00 17 1011.8
20260503195521 69 248 5.2 12.2 0.00 0.00 0.00 17 1012.2
20260503194201 68 251 4.3 12.2 0.00 0.00 0.00 20 1012.2
20260503193521 67 226 6.1 13.9 0.00 0.00 0.00 20 1012.6
20260503192201 66 276 0.9 11.3 0.00 0.00 0.00 22 1013.0
20260503191521 67 239 6.1 11.3 0.00 0.00 0.00 22 1013.0
20260503190841 66 277 5.2 11.3 0.00 0.00 0.00 22 1013.0
20260503190201 66 264 3.5 14.8 0.00 0.00 0.00 22 1013.4
20260503185521 65 233 7.0 13.0 0.00 0.00 0.00 23 1013.4
20260503184201 64 223 7.8 13.0 0.00 0.00 0.00 23 1013.8
20260503183521 64 215 4.3 11.3 0.00 0.00 0.00 24 1013.8
20260503182841 64 262 6.1 12.2 0.00 0.00 0.00 24 1013.8
20260503182201 64 265 6.1 12.2 0.00 0.00 0.00 25 1014.2
20260503181521 63 265 5.2 10.4 0.00 0.00 0.00 26 1014.2
20260503180201 64 257 5.2 11.3 0.00 0.00 0.00 25 1014.6
20260503175521 62 287 3.5 9.6 0.00 0.00 0.00 28 1014.6
20260503174841 61 272 3.5 11.3 0.00 0.00 0.00 28 1014.6
20260503174201 61 228 5.2 10.4 0.00 0.00 0.00 29 1015.0
20260503173521 61 272 5.2 10.4 0.00 0.00 0.00 29 1015.0
20260503172201 60 251 5.2 10.4 0.00 0.00 0.00 31 1015.0
20260503171521 59 264 5.2 9.6 0.00 0.00 0.00 33 1015.0
20260503170201 59 224 3.5 8.7 0.00 0.00 0.00 34 1015.4
20260503160201 54 242 3.5 9.6 0.00 0.00 0.00 42 1015.8
20260503150201 50 235 3.5 6.1 0.00 0.00 0.00 48 1016.6
20260503140201 45 243 2.6 7.8 0.00 0.00 0.00 57 1017.0